[[{"header":{"parameterUnit":"m.s-1","parameterCategory":1,"la1":30.2991,"la2":30.254,"lo1":-89.0895,"lo2":-89.0444,"dy":0.0017,"dx":0.0017,"nx":28,"ny":28,"refTime":"2025-08-21T09:00:00:Z","depth":0,"parameterNumber":2,"parameterNumberName":"U-component_of_WINDS"},"data":[0,0,0,0,0,0,0,0,0,0,0,0,0,0,0,0,0,0,0,0,0,0,0,0,0,0,0,0,0,0,0,0,0,0,0,0,0,0,0,0,0,0,0,0,0,0,0,0,0,0,0,0,0,0,0,0,0,0,0.425,0.425,0,0.4221,0.4221,0.4221,0.4183,0.4182,0.4181,0.4181,0.4152,0.4151,0.4151,0,0,0,0,0,0,0,0,0,0,0,0,0,0.4272,0.4271,0.425,0.425,0.4249,0.4221,0.4221,0.4221,0.4183,0.4182,0.4181,0.418,0.4152,0.4151,0.4151,0,0,0,0,0,0,0,0,0,0,0,0,0,0.4255,0.4271,0.425,0.4227,0.4225,0.4221,0.4221,0.422,0.4183,0.4182,0.4181,0.418,0.4152,0.4151,0.4151,0.4168,0,0,0.415,0.415,0,0,0,0,0,0,0,0,0.4256,0.4254,0.4231,0.4229,0.4226,0.4205,0.4218,0.4203,0.4183,0.4199,0.4181,0.418,0.417,0.4168,0.4165,0.4167,0.4166,0.415,0.415,0.415,0.415,0,0,0,0,0,0,0,0.4257,0.4255,0.4239,0.423,0.4228,0.4218,0.4215,0.4215,0.419,0.4197,0.4195,0.4192,0.4169,0.4165,0.4164,0.4165,0.415,0.415,0.415,0.415,0.4179,0.418,0,0,0,0,0,0,0.4261,0.4256,0.4239,0.4238,0.4239,0.4218,0.4215,0.4212,0.419,0.4186,0.4192,0.419,0.4166,0.4164,0.4163,0.418,0.415,0.415,0.415,0.4178,0.4179,0.418,0,0,0,0,0,0,0.4262,0.426,0.4241,0.4246,0.4243,0.4219,0.4217,0.4212,0.4209,0.4186,0.4182,0.4194,0.4165,0.4163,0.4167,0.4179,0.415,0.4149,0.4177,0.4178,0.4179,0.4216,0,0,0,0,0,0,0.4263,0.4261,0.4267,0.4247,0.4243,0.4246,0.4218,0.4212,0.4209,0.4205,0.4186,0.4182,0.4164,0.4168,0.4167,0.4178,0.4149,0.4175,0.4177,0.4179,0.4214,0.4219,0.4223,0,0,0,0,0,0.4264,0.4279,0.4268,0.4266,0.425,0.4246,0.4244,0.4223,0.421,0.4216,0.4201,0.4183,0.4178,0.4168,0.4167,0.4178,0.4175,0.4177,0.4179,0.4212,0.4218,0.4223,0,0,0,0,0,0,0.4302,0.4276,0.4263,0.4272,0.4262,0.424,0.4247,0.4231,0.4224,0.4221,0.4196,0.4192,0.4198,0.4189,0.4179,0.4193,0.4173,0.4175,0.4199,0.4205,0.4209,0.4211,0.4149,0,0,0,0,0,0.4311,0.431,0.4288,0.4298,0.4293,0.4271,0.4269,0.4254,0.4242,0.4237,0.4223,0.4212,0.4208,0.4206,0.4201,0.4213,0.4207,0.422,0.4224,0.4228,0.423,0.4234,0.4239,0.4187,0.4187,0.4187,0,0,0.4331,0.4316,0.4317,0.4305,0.4295,0.4294,0.4268,0.4268,0.4267,0.4237,0.424,0.4229,0.4215,0.4223,0.4225,0.4215,0.4243,0.4231,0.4234,0.4234,0.4237,0.4242,0.4247,0.4188,0.4188,0.4188,0,0,0.4365,0.4355,0.4362,0.4352,0.4338,0.4323,0.4324,0.4305,0.4297,0.4299,0.4276,0.4274,0.4268,0.4259,0.4254,0.4285,0.4267,0.4284,0.4307,0.4312,0.4316,0.432,0.433,0.4334,0.4286,0.4286,0.4286,0,0.4391,0.4389,0.4367,0.4369,0.4364,0.4337,0.4343,0.4335,0.432,0.4317,0.4305,0.4296,0.4285,0.429,0.4297,0.4294,0.4295,0.4286,0.4318,0.4321,0.4324,0.4333,0.4337,0.4288,0.4288,0.4288,0.4287,0,0.4422,0.4421,0.4428,0.4413,0.4409,0.4414,0.4392,0.439,0.4376,0.4362,0.4364,0.435,0.4341,0.4341,0.4327,0.4343,0.4337,0.4322,0.4302,0.4331,0.434,0.4343,0.4291,0.429,0.429,0.4289,0,0,0.4479,0.4452,0.4455,0.4448,0.443,0.4428,0.4431,0.4423,0.4421,0.4412,0.4413,0.4408,0.4394,0.4388,0.4372,0.4377,0.4401,0.436,0.436,0.4368,0.4417,0.4428,0.4433,0.4389,0.439,0.4391,0.4418,0,0.451,0.4513,0.4493,0.4501,0.45,0.4474,0.4476,0.4465,0.4452,0.4449,0.4435,0.4431,0.4413,0.4409,0.4412,0.4397,0.441,0.4395,0.439,0.439,0.4393,0.4437,0.4449,0.4475,0.4421,0.4422,0.4422,0,0.4546,0.4538,0.4546,0.4527,0.4526,0.4528,0.4518,0.4516,0.4502,0.4493,0.4486,0.4468,0.4469,0.445,0.445,0.4441,0.4437,0.4429,0.443,0.4428,0.4407,0.4436,0.4484,0.4487,0.4427,0.4427,0.4427,0,0.4587,0.4578,0.4581,0.4576,0.4554,0.4556,0.4547,0.4533,0.4529,0.452,0.4517,0.4509,0.4504,0.4498,0.4478,0.4466,0.4481,0.446,0.4472,0.4473,0.4476,0.4476,0.4523,0.4475,0.4475,0.4475,0.4475,0,0.4622,0.4628,0.4599,0.4601,0.4607,0.4584,0.459,0.4578,0.4565,0.4564,0.4542,0.4541,0.4515,0.4512,0.4497,0.4499,0.4497,0.4489,0.4485,0.4491,0.4492,0.4488,0.4485,0.4476,0.4476,0.4476,0.4475,0,0.4668,0.4649,0.4651,0.4629,0.4624,0.4629,0.4611,0.4612,0.4597,0.4597,0.4595,0.4573,0.4567,0.4547,0.4537,0.4527,0.4534,0.4526,0.4538,0.4535,0.4548,0.4546,0.4593,0.4598,0.4548,0.4549,0.4549,0,0.4692,0.4696,0.4675,0.4672,0.4664,0.4661,0.4656,0.4634,0.463,0.4615,0.4618,0.461,0.4603,0.4596,0.4579,0.4571,0.4562,0.4579,0.4561,0.4566,0.4561,0.4561,0.4561,0.4583,0.4584,0.4584,0.4584,0,0.4736,0.4726,0.4721,0.4712,0.4707,0.4699,0.4689,0.4689,0.4663,0.466,0.4654,0.4649,0.4639,0.4631,0.4621,0.4611,0.4593,0.459,0.4593,0.4598,0.4605,0.46,0.4548,0.4589,0.4589,0.4589,0.4588,0.4588,0.4771,0.4773,0.4758,0.4752,0.4743,0.4734,0.4734,0.4719,0.4714,0.4704,0.4691,0.4686,0.4672,0.4656,0.4647,0.4643,0.4634,0.4637,0.4638,0.4639,0.4641,0.4606,0.4641,0.4641,0.4641,0.4641,0.4641,0,0.4813,0.4802,0.4797,0.4784,0.478,0.4764,0.4753,0.475,0.4746,0.4735,0.4728,0.4721,0.4714,0.4696,0.4687,0.4687,0.4679,0.4686,0.4685,0.4683,0.4651,0.4649,0.4692,0.4692,0.4692,0.4692,0.4692,0.4692,0.4834,0.4836,0.4825,0.4821,0.481,0.4806,0.4801,0.4792,0.4783,0.4776,0.477,0.4759,0.4744,0.4734,0.4726,0.4721,0.4719,0.4728,0.472,0.469,0.4685,0.468,0.4679,0.4728,0.4728,0.4752,0.4752,0.4752]},{"header":{"parameterUnit":"m.s-1","parameterCategory":1,"la1":30.2991,"la2":30.254,"lo1":-89.0895,"lo2":-89.0444,"dy":0.0017,"dx":0.0017,"nx":28,"ny":28,"refTime":"2025-08-21T09:00:00:Z","depth":0,"parameterNumber":3,"parameterNumberName":"V-component_of_WINDS"},"data":[0,0,0,0,0,0,0,0,0,0,0,0,0,0,0,0,0,0,0,0,0,0,0,0,0,0,0,0,0,0,0,0,0,0,0,0,0,0,0,0,0,0,0,0,0,0,0,0,0,0,0,0,0,0,0,0,0,0,0.6454,0.6453,0,0.6299,0.6297,0.6295,0.6195,0.6195,0.6194,0.6194,0.6034,0.603,0.6026,0,0,0,0,0,0,0,0,0,0,0,0,0,0.6664,0.6661,0.6455,0.6453,0.6451,0.6299,0.6297,0.6295,0.6195,0.6195,0.6194,0.6193,0.6035,0.603,0.6026,0,0,0,0,0,0,0,0,0,0,0,0,0,0.6547,0.666,0.6455,0.6383,0.6375,0.6299,0.6297,0.6294,0.6196,0.6195,0.6194,0.6193,0.6036,0.6031,0.6025,0.6009,0,0,0.6008,0.6006,0,0,0,0,0,0,0,0,0.6554,0.654,0.6395,0.6388,0.6379,0.6266,0.6312,0.6199,0.6196,0.6264,0.6194,0.6193,0.6111,0.61,0.6072,0.6002,0.5995,0.6008,0.6005,0.6002,0.6001,0,0,0,0,0,0,0,0.6562,0.6546,0.6393,0.6393,0.6383,0.6358,0.634,0.629,0.6195,0.6258,0.625,0.6233,0.6107,0.6078,0.6068,0.5992,0.6008,0.6003,0.6,0.5998,0.5898,0.5899,0,0,0,0,0,0,0.6582,0.6553,0.6398,0.6388,0.6466,0.6355,0.6335,0.6303,0.6195,0.6177,0.6234,0.6229,0.6088,0.6075,0.6062,0.6034,0.6002,0.5997,0.5994,0.5897,0.5898,0.5899,0,0,0,0,0,0,0.6587,0.6569,0.6404,0.6469,0.6446,0.6352,0.6317,0.63,0.6271,0.6177,0.6159,0.6222,0.6087,0.607,0.6022,0.6027,0.5994,0.5989,0.5896,0.5898,0.5899,0.5979,0,0,0,0,0,0,0.6593,0.6572,0.6565,0.6469,0.6443,0.6368,0.6317,0.6298,0.6262,0.6254,0.6161,0.6145,0.6085,0.6031,0.6017,0.6019,0.5985,0.5896,0.5897,0.5898,0.5975,0.5983,0.5989,0,0,0,0,0,0.6601,0.6594,0.6565,0.6547,0.6432,0.6368,0.6353,0.6284,0.6263,0.6255,0.6194,0.6148,0.6029,0.6027,0.601,0.601,0.5895,0.5897,0.5898,0.5972,0.5981,0.5989,0,0,0,0,0,0,0.6693,0.658,0.6547,0.6509,0.6449,0.6352,0.6339,0.6296,0.6241,0.6235,0.6152,0.6132,0.6093,0.6047,0.6047,0.5988,0.5957,0.5955,0.6019,0.6026,0.6033,0.6044,0.598,0,0,0,0,0,0.6708,0.6666,0.657,0.6546,0.6517,0.6434,0.6404,0.6356,0.629,0.6264,0.62,0.6138,0.6086,0.6054,0.6002,0.5969,0.5946,0.596,0.5967,0.5973,0.5972,0.5949,0.5954,0.5904,0.5904,0.5904,0,0,0.674,0.6674,0.6652,0.6562,0.651,0.6468,0.6413,0.6371,0.6338,0.6258,0.6208,0.616,0.6085,0.6044,0.6023,0.6005,0.5981,0.5975,0.5981,0.5976,0.5951,0.5956,0.596,0.5905,0.5905,0.5905,0,0,0.6776,0.6723,0.6695,0.6644,0.6566,0.651,0.6504,0.6413,0.6377,0.6327,0.6265,0.6225,0.6138,0.6087,0.605,0.6065,0.602,0.6051,0.6085,0.6064,0.6068,0.6071,0.6074,0.6077,0.605,0.6051,0.6051,0,0.6825,0.6759,0.6687,0.6647,0.6609,0.6534,0.6505,0.6459,0.6368,0.6343,0.6324,0.6212,0.6157,0.6102,0.6106,0.6079,0.6068,0.606,0.6073,0.6075,0.6077,0.608,0.6081,0.6055,0.6054,0.6054,0.6053,0,0.6823,0.6778,0.6765,0.6678,0.6639,0.6605,0.6526,0.6495,0.645,0.6397,0.6345,0.6276,0.6208,0.6191,0.6148,0.613,0.6121,0.6089,0.6055,0.6087,0.6088,0.6089,0.606,0.6059,0.6058,0.6057,0,0,0.6911,0.6785,0.6781,0.674,0.6648,0.6611,0.6574,0.6507,0.648,0.642,0.6386,0.6314,0.6283,0.6241,0.619,0.6172,0.6187,0.6142,0.6138,0.6151,0.6161,0.6184,0.6187,0.6157,0.6157,0.6157,0.6166,0,0.6932,0.686,0.6794,0.6746,0.6702,0.6631,0.6598,0.6537,0.6486,0.6441,0.6385,0.6334,0.6298,0.6272,0.6251,0.619,0.6187,0.6188,0.6122,0.6121,0.6142,0.6187,0.6212,0.6225,0.6167,0.6167,0.6167,0,0.6946,0.6889,0.6837,0.6748,0.6727,0.6699,0.6631,0.6589,0.6519,0.6483,0.6436,0.6383,0.6338,0.6311,0.6248,0.625,0.6219,0.6185,0.6184,0.6174,0.6145,0.6177,0.6227,0.6228,0.6167,0.6167,0.6167,0,0.7013,0.6923,0.688,0.6847,0.6743,0.6724,0.668,0.6609,0.6572,0.6513,0.6488,0.6425,0.639,0.6342,0.6273,0.626,0.6217,0.6184,0.6184,0.6186,0.6177,0.6178,0.6221,0.6161,0.6161,0.6161,0.6161,0,0.7042,0.7013,0.6908,0.6882,0.6846,0.677,0.6736,0.6686,0.6623,0.6584,0.6519,0.6484,0.6396,0.635,0.6296,0.6251,0.6236,0.6205,0.619,0.6209,0.6213,0.6187,0.6183,0.6161,0.6161,0.6161,0.6161,0,0.7111,0.704,0.6987,0.6893,0.6869,0.6846,0.6765,0.6736,0.6681,0.6633,0.6617,0.6531,0.6473,0.64,0.632,0.6283,0.6244,0.6223,0.6267,0.6259,0.6262,0.6262,0.6288,0.6287,0.623,0.6231,0.6231,0,0.7133,0.7108,0.7011,0.6981,0.6938,0.689,0.6852,0.6776,0.6739,0.6657,0.6637,0.6575,0.6521,0.6432,0.6362,0.63,0.6276,0.6289,0.6266,0.6285,0.6273,0.6275,0.6271,0.6295,0.6296,0.6297,0.6297,0,0.7179,0.7145,0.7093,0.7029,0.6986,0.6931,0.6874,0.6853,0.6764,0.6726,0.6666,0.6624,0.6542,0.648,0.6409,0.6362,0.6314,0.6305,0.6302,0.632,0.6346,0.633,0.6281,0.6305,0.6304,0.6303,0.6303,0.6303,0.7223,0.7198,0.7125,0.7069,0.7018,0.6966,0.6933,0.6874,0.6823,0.675,0.6708,0.665,0.6578,0.6478,0.6433,0.6385,0.6368,0.6363,0.6361,0.6361,0.6366,0.6355,0.6372,0.6372,0.6372,0.6372,0.6371,0,0.7264,0.7214,0.7164,0.7085,0.7041,0.7001,0.6935,0.69,0.685,0.6788,0.6736,0.6667,0.6606,0.6531,0.6466,0.6442,0.6418,0.6427,0.6427,0.6417,0.6387,0.6395,0.6447,0.6447,0.6447,0.6447,0.6447,0.6447,0.728,0.7234,0.7192,0.7119,0.7068,0.7011,0.6976,0.6927,0.6877,0.6803,0.6752,0.6704,0.6636,0.6565,0.6508,0.6487,0.6465,0.648,0.6453,0.6426,0.6419,0.6413,0.642,0.6477,0.6477,0.6486,0.6486,0.6487]}]]